リニア彗星

C/2004 F2 ( LINEAR )

English version
Home page
Updated on August 7, 2004

---------------------------------------------------------------------

・ プロフィール

発見日 2004年3月25日
発見光度 18.4等
発見者 Lincoln Laboratory Near-Earth Asteroid Research project

・ 軌道要素

Epoch 2003 Dec. 27.0 TT = JDT 2453000.5
T 2003 Dec. 26.65139 TT                                 MPC
q   1.4305131            (2000.0)            P               Q
z  +0.0065150      Peri.  317.14861     -0.10825306     -0.42757479
 +/-0.0000348      Node   248.27478     -0.42312329     -0.79710859
e   0.9906802      Incl.  104.96207     -0.89958210     +0.42637741

・ 星図

・ 光度変化

        m1 = 14.7 + 5 logΔ + 7.5 log r

---------------------------------------------------------------------

軌道要素はM.P.E.C. 2004-L39に掲載されたものです。
星図は StellaNavigator Ver.2.0 for Windows (アストロアーツ 編著 / アスキー出版局刊) で作成したものです。
光度グラフはComet for Windowsで作成したものです。

---------------------------------------------------------------------

Copyright(C) Seiichi Yoshida (comet@aerith.net). All rights reserved.